User: anonymous   Login
Location: Unspecified
(0.0000°N, 0.0000°E)
Time: 01:09:03
(UTC+00:00)
Language:

USA 179 - Orbit

View from above orbital plane
View from above orbital plane
View from above satellite
View from above satellite

Ground track
Ground track

The orbit data is extracted from the following two-line orbital elements,

1 28384U 04034A   17279.76183384 0.00000000  00000-0  00000-0 0    05
2 28384  63.1904 293.6174 7313243 272.2602  13.6913  2.00620000    09
Epoch (UTC): 06 October 2017 18:17:02
Eccentricity: 0.7313243
inclination: 63.1904°
perigee height: 756 km
apogee height: 39597 km
right ascension of ascending node: 293.6174°
argument of perigee: 272.2602°
revolutions per day: 2.00620000
mean anomaly at epoch: 13.6913°
orbit number at epoch: 0

The dashed part of the orbit path shows where the satellite is in the earth's shadow,  

DLR